AVA125 SGAS-SUMU

Flight info

Callsign AVA125
Flight time 1h 27m
Altitude 36000
Route ITAPE ASATI UP526 GEMSU/N0466F350 UP526 MONSA
Aircraft A320/M-SDE3FGHIRWY/LB1

Departure

Time 2026-04-21 20:24
Airport Silvio Pettirossi International Airport (SGAS)

Arrival

Time 2026-04-21 21:52
Airport Carrasco General Cesáreo L. Berisso International Airport (SUMU)
Time Latitude Longitude Altitude Speed Heading
2026-04-21 20:04 -25.24232 -57.51550 299 ft 0 kts 100°
2026-04-21 20:13 -25.24232 -57.51552 299 ft 2 kts 100°
2026-04-21 20:14 -25.24226 -57.51580 301 ft 4 kts 105°
2026-04-21 20:14 -25.24220 -57.51605 300 ft 4 kts 94°
2026-04-21 20:14 -25.24227 -57.51623 300 ft 4 kts 25°
2026-04-21 20:14 -25.24248 -57.51635 299 ft 4 kts 28°
2026-04-21 20:15 -25.24273 -57.51649 300 ft 4 kts 27°
2026-04-21 20:15 -25.24296 -57.51664 299 ft 4 kts 41°
2026-04-21 20:15 -25.24308 -57.51683 301 ft 2 kts 97°
2026-04-21 20:15 -25.24308 -57.51684 301 ft 0 kts 98°
2026-04-21 20:19 -25.24339 -57.51669 300 ft 8 kts 193°
2026-04-21 20:20 -25.24375 -57.51728 299 ft 14 kts 246°
2026-04-21 20:20 -25.24435 -57.51818 300 ft 15 kts 202°
2026-04-21 20:20 -25.24533 -57.51844 301 ft 14 kts 193°
2026-04-21 20:20 -25.24630 -57.51869 299 ft 14 kts 193°
2026-04-21 20:21 -25.24723 -57.51892 301 ft 13 kts 193°
2026-04-21 20:21 -25.24807 -57.51914 303 ft 12 kts 193°
2026-04-21 20:21 -25.24884 -57.51933 301 ft 14 kts 193°
2026-04-21 20:21 -25.25027 -57.51970 300 ft 25 kts 193°
2026-04-21 20:22 -25.25198 -57.52013 298 ft 26 kts 193°
2026-04-21 20:22 -25.25476 -57.52091 301 ft 10 kts 222°
2026-04-21 20:22 -25.25475 -57.52159 299 ft 8 kts 282°
2026-04-21 20:23 -25.25464 -57.52218 298 ft 7 kts 283°
2026-04-21 20:23 -25.25438 -57.52257 298 ft 6 kts 335°
2026-04-21 20:23 -25.25405 -57.52257 299 ft 4 kts
2026-04-21 20:23 -25.25372 -57.52249 302 ft 12 kts 13°
2026-04-21 20:24 -25.25033 -57.52166 298 ft 85 kts 12°
2026-04-21 20:24 -25.24254 -57.51976 304 ft 142 kts 12°
2026-04-21 20:24 -25.23140 -57.51705 362 ft 180 kts 12°
2026-04-21 20:24 -25.21948 -57.51412 1029 ft 175 kts 12°
2026-04-21 20:25 -25.20759 -57.51127 1713 ft 175 kts 11°
2026-04-21 20:25 -25.19580 -57.50672 2127 ft 193 kts 38°
2026-04-21 20:25 -25.18887 -57.49348 2403 ft 216 kts 83°
2026-04-21 20:25 -25.19208 -57.47691 2623 ft 240 kts 124°
2026-04-21 20:26 -25.20556 -57.46490 3017 ft 259 kts 162°
2026-04-21 20:26 -25.22371 -57.46200 3641 ft 268 kts 181°
2026-04-21 20:26 -25.24243 -57.46344 4433 ft 272 kts 188°
2026-04-21 20:26 -25.26129 -57.46625 5241 ft 275 kts 189°
2026-04-21 20:27 -25.28011 -57.46913 6035 ft 278 kts 189°
2026-04-21 20:27 -25.29945 -57.47175 6790 ft 282 kts 188°
2026-04-21 20:27 -25.31909 -57.47399 7524 ft 286 kts 187°
2026-04-21 20:27 -25.33906 -57.47592 8252 ft 290 kts 187°
2026-04-21 20:28 -25.35934 -57.47763 8973 ft 294 kts 186°
2026-04-21 20:28 -25.37990 -57.47924 9704 ft 298 kts 187°
2026-04-21 20:28 -25.40078 -57.48083 10293 ft 307 kts 186°
2026-04-21 20:28 -25.42287 -57.48253 10460 ft 330 kts 186°
2026-04-21 20:29 -25.44660 -57.48437 10584 ft 353 kts 186°
2026-04-21 20:29 -25.47179 -57.48629 10745 ft 372 kts 186°
2026-04-21 20:29 -25.49796 -57.48829 11207 ft 380 kts 186°
2026-04-21 20:29 -25.52443 -57.49033 11784 ft 383 kts 185°
2026-04-21 20:30 -25.55114 -57.49239 12375 ft 386 kts 185°
2026-04-21 20:30 -25.57807 -57.49445 12962 ft 389 kts 185°
2026-04-21 20:30 -25.60519 -57.49649 13540 ft 392 kts 185°
2026-04-21 20:30 -25.63253 -57.49855 14060 ft 395 kts 185°
2026-04-21 20:31 -25.66005 -57.50065 14562 ft 398 kts 185°
2026-04-21 20:31 -25.68773 -57.50280 15064 ft 400 kts 185°
2026-04-21 20:31 -25.71559 -57.50497 15564 ft 403 kts 185°
2026-04-21 20:31 -25.74364 -57.50715 16070 ft 405 kts 186°
2026-04-21 20:32 -25.77183 -57.50934 16572 ft 408 kts 186°
2026-04-21 20:32 -25.80023 -57.51155 17068 ft 410 kts 186°
2026-04-21 20:32 -25.82877 -57.51379 17573 ft 413 kts 186°
2026-04-21 20:32 -25.85754 -57.51602 18069 ft 416 kts 186°
2026-04-21 20:33 -25.88648 -57.51826 18517 ft 418 kts 187°
2026-04-21 20:33 -25.91558 -57.52051 18928 ft 420 kts 187°
2026-04-21 20:33 -25.94485 -57.52274 19335 ft 423 kts 187°
2026-04-21 20:33 -25.97428 -57.52498 19728 ft 425 kts 187°
2026-04-21 20:34 -26.00394 -57.52727 20118 ft 428 kts 187°
2026-04-21 20:34 -26.03371 -57.52958 20502 ft 431 kts 187°
2026-04-21 20:34 -26.06371 -57.53191 20876 ft 433 kts 188°
2026-04-21 20:34 -26.09386 -57.53408 21248 ft 436 kts 187°
2026-04-21 20:35 -26.12435 -57.53524 21602 ft 440 kts 185°
2026-04-21 20:35 -26.15506 -57.53558 21948 ft 443 kts 184°
2026-04-21 20:35 -26.18596 -57.53545 22289 ft 446 kts 184°
2026-04-21 20:35 -26.21707 -57.53525 22621 ft 448 kts 184°
2026-04-21 20:36 -26.24834 -57.53518 22948 ft 450 kts 185°
2026-04-21 20:36 -26.27976 -57.53530 23264 ft 452 kts 185°
2026-04-21 20:36 -26.31134 -57.53556 23565 ft 455 kts 185°
2026-04-21 20:36 -26.34305 -57.53590 23824 ft 457 kts 185°
2026-04-21 20:37 -26.37491 -57.53629 24060 ft 459 kts 186°
2026-04-21 20:37 -26.40693 -57.53672 24315 ft 461 kts 186°
2026-04-21 20:37 -26.43858 -57.53716 24572 ft 462 kts 186°
2026-04-21 20:37 -26.47079 -57.53760 24827 ft 463 kts 186°
2026-04-21 20:38 -26.50351 -57.53801 25075 ft 465 kts 186°
2026-04-21 20:38 -26.53591 -57.53837 25323 ft 466 kts 186°
2026-04-21 20:38 -26.56841 -57.53870 25575 ft 468 kts 186°
2026-04-21 20:38 -26.60096 -57.53901 25828 ft 469 kts 186°
2026-04-21 20:39 -26.63364 -57.53931 26060 ft 470 kts 186°
2026-04-21 20:39 -26.66636 -57.53963 26284 ft 471 kts 186°
2026-04-21 20:39 -26.69916 -57.54001 26501 ft 472 kts 187°
2026-04-21 20:39 -26.73208 -57.54040 26713 ft 473 kts 187°
2026-04-21 20:40 -26.76508 -57.54075 26915 ft 475 kts 187°
2026-04-21 20:40 -26.79814 -57.54109 27111 ft 476 kts 187°
2026-04-21 20:40 -26.83129 -57.54142 27302 ft 477 kts 187°
2026-04-21 20:40 -26.86443 -57.54177 27517 ft 477 kts 187°
2026-04-21 20:41 -26.89756 -57.54238 27798 ft 475 kts 188°
2026-04-21 20:41 -26.93056 -57.54330 28074 ft 474 kts 188°
2026-04-21 20:41 -26.96343 -57.54439 28345 ft 473 kts 189°
2026-04-21 20:41 -26.99586 -57.54551 28613 ft 472 kts 189°
2026-04-21 20:42 -27.02864 -57.54663 28882 ft 471 kts 189°
2026-04-21 20:42 -27.06136 -57.54771 29157 ft 470 kts 189°
2026-04-21 20:42 -27.09403 -57.54872 29432 ft 469 kts 189°
2026-04-21 20:42 -27.12665 -57.54965 29704 ft 469 kts 189°
2026-04-21 20:43 -27.15923 -57.55053 29980 ft 468 kts 189°
2026-04-21 20:43 -27.19175 -57.55143 30222 ft 467 kts 189°
2026-04-21 20:43 -27.22418 -57.55229 30451 ft 466 kts 189°
2026-04-21 20:43 -27.25662 -57.55315 30678 ft 466 kts 189°
2026-04-21 20:44 -27.28895 -57.55403 30912 ft 465 kts 189°
2026-04-21 20:44 -27.32127 -57.55498 31152 ft 464 kts 190°
2026-04-21 20:44 -27.35346 -57.55597 31396 ft 463 kts 190°
2026-04-21 20:44 -27.38561 -57.55695 31631 ft 462 kts 190°
2026-04-21 20:45 -27.41771 -57.55788 31890 ft 461 kts 190°
2026-04-21 20:45 -27.44973 -57.55885 32145 ft 460 kts 190°
2026-04-21 20:45 -27.48163 -57.56004 32398 ft 458 kts 191°
2026-04-21 20:45 -27.51342 -57.56141 32645 ft 457 kts 191°
2026-04-21 20:46 -27.54516 -57.56284 32901 ft 456 kts 191°
2026-04-21 20:46 -27.57683 -57.56424 33161 ft 455 kts 191°
2026-04-21 20:46 -27.60834 -57.56558 33418 ft 454 kts 191°
2026-04-21 20:46 -27.63989 -57.56686 33691 ft 454 kts 191°
2026-04-21 20:47 -27.67142 -57.56814 33951 ft 453 kts 192°
2026-04-21 20:47 -27.70286 -57.56943 34179 ft 452 kts 192°
2026-04-21 20:47 -27.73424 -57.57073 34387 ft 451 kts 192°
2026-04-21 20:47 -27.76563 -57.57207 34598 ft 451 kts 192°
2026-04-21 20:48 -27.78641 -57.57297 34728 ft 451 kts 192°
2026-04-21 20:48 -27.81776 -57.57430 34914 ft 451 kts 192°
2026-04-21 20:48 -27.88047 -57.57692 35011 ft 451 kts 192°
2026-04-21 20:49 -27.94314 -57.57946 34993 ft 451 kts 192°
2026-04-21 20:49 -28.00579 -57.58204 34990 ft 451 kts 192°
2026-04-21 20:50 -28.06845 -57.58461 34990 ft 450 kts 192°
2026-04-21 20:50 -28.13110 -57.58723 34989 ft 451 kts 192°
2026-04-21 20:51 -28.19365 -57.58983 34987 ft 449 kts 192°
2026-04-21 20:51 -28.25622 -57.59202 34989 ft 450 kts 192°
2026-04-21 20:52 -28.31892 -57.59323 34989 ft 451 kts 191°
2026-04-21 20:52 -28.38165 -57.59443 34989 ft 450 kts 191°
2026-04-21 20:53 -28.44425 -57.59585 34988 ft 450 kts 192°
2026-04-21 20:53 -28.50682 -57.59731 34994 ft 449 kts 192°
2026-04-21 20:54 -28.56937 -57.59882 34994 ft 449 kts 192°
2026-04-21 20:54 -28.63190 -57.60032 34994 ft 450 kts 192°
2026-04-21 20:55 -28.69446 -57.60185 34994 ft 450 kts 192°
2026-04-21 20:55 -28.75707 -57.60326 34996 ft 450 kts 192°
2026-04-21 20:56 -28.81966 -57.60465 35000 ft 450 kts 192°
2026-04-21 20:56 -28.88224 -57.60612 34998 ft 450 kts 192°
2026-04-21 20:57 -28.94476 -57.60770 35000 ft 449 kts 192°
2026-04-21 20:57 -29.00727 -57.60916 34998 ft 449 kts 192°
2026-04-21 20:58 -29.06978 -57.61062 34998 ft 449 kts 192°
2026-04-21 20:58 -29.13229 -57.61216 35020 ft 449 kts 192°
2026-04-21 20:59 -29.19471 -57.61368 35008 ft 448 kts 192°
2026-04-21 20:59 -29.25708 -57.61514 35008 ft 448 kts 192°
2026-04-21 21:00 -29.31947 -57.61663 35011 ft 449 kts 192°
2026-04-21 21:00 -29.38150 -57.61801 35019 ft 449 kts 192°
2026-04-21 21:01 -29.44398 -57.61944 35007 ft 449 kts 193°
2026-04-21 21:01 -29.50688 -57.62078 35004 ft 450 kts 193°
2026-04-21 21:02 -29.56944 -57.62215 35009 ft 449 kts 193°
2026-04-21 21:02 -29.63193 -57.62372 35007 ft 449 kts 193°
2026-04-21 21:03 -29.69445 -57.62515 35013 ft 449 kts 193°
2026-04-21 21:03 -29.75693 -57.62658 35013 ft 449 kts 193°
2026-04-21 21:04 -29.81943 -57.62797 35012 ft 449 kts 193°
2026-04-21 21:04 -29.88191 -57.62940 35023 ft 449 kts 193°
2026-04-21 21:05 -29.94389 -57.63083 35008 ft 449 kts 193°
2026-04-21 21:05 -30.00635 -57.63227 35007 ft 449 kts 193°
2026-04-21 21:06 -30.06882 -57.63370 35007 ft 449 kts 193°
2026-04-21 21:06 -30.13127 -57.63511 35023 ft 449 kts 193°
2026-04-21 21:07 -30.19380 -57.63661 35008 ft 449 kts 193°
2026-04-21 21:07 -30.25660 -57.63647 35007 ft 460 kts 186°
2026-04-21 21:08 -30.28867 -57.63015 35010 ft 475 kts 176°
2026-04-21 21:08 -30.32061 -57.61914 35008 ft 481 kts 174°
2026-04-21 21:08 -30.38454 -57.59613 35008 ft 481 kts 174°
2026-04-21 21:09 -30.44843 -57.57325 35010 ft 481 kts 174°
2026-04-21 21:09 -30.51236 -57.55034 35011 ft 481 kts 174°
2026-04-21 21:10 -30.57625 -57.52740 35041 ft 481 kts 174°
2026-04-21 21:10 -30.64012 -57.50442 35016 ft 480 kts 174°
2026-04-21 21:11 -30.70398 -57.48148 35006 ft 480 kts 174°
2026-04-21 21:11 -30.76783 -57.45840 35015 ft 480 kts 174°
2026-04-21 21:12 -30.83160 -57.43533 35012 ft 480 kts 174°
2026-04-21 21:12 -30.89540 -57.41231 35010 ft 480 kts 174°
2026-04-21 21:13 -30.95919 -57.38931 35018 ft 480 kts 174°
2026-04-21 21:13 -31.02293 -57.36633 35022 ft 479 kts 174°
2026-04-21 21:14 -31.08655 -57.34327 35019 ft 479 kts 174°
2026-04-21 21:14 -31.15014 -57.32020 35019 ft 479 kts 174°
2026-04-21 21:15 -31.21377 -57.29709 35046 ft 479 kts 174°
2026-04-21 21:15 -31.27736 -57.27388 35022 ft 478 kts 174°
2026-04-21 21:16 -31.34091 -57.25079 35021 ft 479 kts 174°
2026-04-21 21:16 -31.40449 -57.22763 35024 ft 479 kts 174°
2026-04-21 21:17 -31.46807 -57.20441 35015 ft 478 kts 174°
2026-04-21 21:17 -31.53120 -57.18119 35024 ft 479 kts 174°
2026-04-21 21:18 -31.59470 -57.15788 35026 ft 479 kts 174°
2026-04-21 21:18 -31.65825 -57.13455 35044 ft 479 kts 174°
2026-04-21 21:19 -31.72184 -57.11116 35030 ft 479 kts 174°
2026-04-21 21:19 -31.78536 -57.08773 35029 ft 478 kts 174°
2026-04-21 21:20 -31.84878 -57.06405 35032 ft 478 kts 173°
2026-04-21 21:20 -31.91215 -57.03994 35032 ft 478 kts 173°
2026-04-21 21:21 -31.97558 -57.01627 35032 ft 478 kts 174°
2026-04-21 21:21 -32.03908 -56.99284 35032 ft 478 kts 174°
2026-04-21 21:22 -32.10257 -56.96931 35033 ft 478 kts 173°
2026-04-21 21:22 -32.16609 -56.94577 35035 ft 478 kts 173°
2026-04-21 21:23 -32.22958 -56.92214 35035 ft 479 kts 173°
2026-04-21 21:23 -32.29311 -56.89836 35030 ft 479 kts 173°
2026-04-21 21:24 -32.35669 -56.87461 35038 ft 479 kts 173°
2026-04-21 21:24 -32.42027 -56.85078 35038 ft 479 kts 173°
2026-04-21 21:25 -32.48386 -56.82695 35045 ft 479 kts 173°
2026-04-21 21:25 -32.54737 -56.80313 35038 ft 479 kts 173°
2026-04-21 21:26 -32.61089 -56.77923 35038 ft 479 kts 173°
2026-04-21 21:26 -32.67443 -56.75525 35074 ft 479 kts 173°
2026-04-21 21:27 -32.73753 -56.73140 35036 ft 479 kts 173°
2026-04-21 21:27 -32.80102 -56.70736 35033 ft 479 kts 173°
2026-04-21 21:28 -32.86457 -56.68328 35034 ft 479 kts 173°
2026-04-21 21:29 -32.96004 -56.64709 35032 ft 481 kts 173°
2026-04-21 21:29 -33.02375 -56.62282 35032 ft 481 kts 172°
2026-04-21 21:30 -33.08751 -56.59853 35056 ft 482 kts 172°
2026-04-21 21:30 -33.15141 -56.57419 35021 ft 483 kts 172°
2026-04-21 21:31 -33.21529 -56.54976 35031 ft 482 kts 172°
2026-04-21 21:31 -33.27911 -56.52543 35047 ft 481 kts 172°
2026-04-21 21:32 -33.34295 -56.50114 35029 ft 482 kts 172°
2026-04-21 21:32 -33.40700 -56.47845 35029 ft 478 kts 175°
2026-04-21 21:33 -33.47126 -56.45893 35029 ft 476 kts 176°
2026-04-21 21:33 -33.50345 -56.44947 34906 ft 476 kts 176°
2026-04-21 21:33 -33.52479 -56.44315 34433 ft 478 kts 176°
2026-04-21 21:33 -33.55707 -56.43335 34129 ft 481 kts 175°
2026-04-21 21:34 -33.58956 -56.42326 33614 ft 484 kts 174°
2026-04-21 21:34 -33.62238 -56.41293 32488 ft 490 kts 174°
2026-04-21 21:34 -33.65540 -56.40240 31463 ft 493 kts 173°
2026-04-21 21:34 -33.68869 -56.39175 30445 ft 496 kts 172°
2026-04-21 21:35 -33.72219 -56.38105 29173 ft 501 kts 172°
2026-04-21 21:35 -33.75591 -56.37031 27985 ft 501 kts 172°
2026-04-21 21:35 -33.78968 -56.35954 26771 ft 502 kts 172°
2026-04-21 21:35 -33.82356 -56.34876 25472 ft 505 kts 171°
2026-04-21 21:36 -33.85757 -56.33796 24228 ft 506 kts 171°
2026-04-21 21:36 -33.89170 -56.32717 22960 ft 507 kts 171°
2026-04-21 21:36 -33.92548 -56.31645 22164 ft 497 kts 171°
2026-04-21 21:36 -33.95880 -56.30583 21254 ft 492 kts 170°
2026-04-21 21:37 -33.99159 -56.29536 20373 ft 486 kts 170°
2026-04-21 21:37 -34.02402 -56.28503 19616 ft 479 kts 170°
2026-04-21 21:37 -34.05617 -56.27482 18861 ft 474 kts 170°
2026-04-21 21:37 -34.08793 -56.26474 17928 ft 473 kts 169°
2026-04-21 21:38 -34.11945 -56.25473 17243 ft 464 kts 169°
2026-04-21 21:38 -34.15067 -56.24481 16472 ft 461 kts 169°
2026-04-21 21:38 -34.18141 -56.23501 15656 ft 458 kts 169°
2026-04-21 21:38 -34.21195 -56.22525 15026 ft 450 kts 169°
2026-04-21 21:39 -34.24190 -56.21566 14205 ft 437 kts 169°
2026-04-21 21:39 -34.27066 -56.20641 13569 ft 418 kts 169°
2026-04-21 21:39 -34.29837 -56.19747 12868 ft 411 kts 168°
2026-04-21 21:39 -34.32635 -56.18916 11990 ft 414 kts 173°
2026-04-21 21:40 -34.35474 -56.18553 11324 ft 407 kts 182°
2026-04-21 21:40 -34.38227 -56.18728 10866 ft 394 kts 192°
2026-04-21 21:40 -34.40879 -56.19214 10694 ft 378 kts 192°
2026-04-21 21:40 -34.43427 -56.19665 10475 ft 364 kts 192°
2026-04-21 21:41 -34.45912 -56.20094 10104 ft 359 kts 192°
2026-04-21 21:41 -34.48337 -56.20510 9996 ft 344 kts 192°
2026-04-21 21:41 -34.50641 -56.20904 10015 ft 326 kts 192°
2026-04-21 21:41 -34.52832 -56.21281 10015 ft 310 kts 192°
2026-04-21 21:42 -34.54944 -56.21652 10012 ft 305 kts 192°
2026-04-21 21:42 -34.57042 -56.22029 10012 ft 304 kts 192°
2026-04-21 21:42 -34.59134 -56.22407 10013 ft 304 kts 192°
2026-04-21 21:42 -34.61222 -56.22783 10011 ft 304 kts 192°
2026-04-21 21:43 -34.63315 -56.23158 10007 ft 304 kts 192°
2026-04-21 21:43 -34.65406 -56.23529 9981 ft 303 kts 192°
2026-04-21 21:43 -34.67486 -56.23896 9610 ft 301 kts 192°
2026-04-21 21:43 -34.69540 -56.24260 9017 ft 297 kts 192°
2026-04-21 21:44 -34.71581 -56.24623 8384 ft 296 kts 192°
2026-04-21 21:44 -34.73608 -56.24983 7788 ft 293 kts 192°
2026-04-21 21:44 -34.75607 -56.25341 7165 ft 290 kts 192°
2026-04-21 21:44 -34.77589 -56.25694 6571 ft 287 kts 191°
2026-04-21 21:45 -34.79553 -56.26041 6127 ft 278 kts 191°
2026-04-21 21:45 -34.81399 -56.26362 5992 ft 261 kts 191°
2026-04-21 21:45 -34.83152 -56.26670 5821 ft 249 kts 192°
2026-04-21 21:45 -34.84904 -56.26822 5203 ft 254 kts 176°
2026-04-21 21:46 -34.86561 -56.26386 5065 ft 234 kts 160°
2026-04-21 21:46 -34.87925 -56.25512 4911 ft 208 kts 143°
2026-04-21 21:46 -34.89027 -56.24528 4786 ft 187 kts 142°
2026-04-21 21:46 -34.90020 -56.23647 4627 ft 170 kts 143°
2026-04-21 21:47 -34.90964 -56.22811 4303 ft 166 kts 143°
2026-04-21 21:47 -34.91890 -56.21986 3951 ft 164 kts 143°
2026-04-21 21:47 -34.92789 -56.21051 3361 ft 174 kts 122°
2026-04-21 21:47 -34.93210 -56.19776 3100 ft 154 kts 89°
2026-04-21 21:48 -34.93101 -56.18540 3021 ft 145 kts 64°
2026-04-21 21:48 -34.92598 -56.17507 2833 ft 140 kts 47°
2026-04-21 21:48 -34.92016 -56.16556 2647 ft 140 kts 48°
2026-04-21 21:48 -34.91442 -56.15610 2457 ft 139 kts 49°
2026-04-21 21:49 -34.90868 -56.14665 2268 ft 139 kts 49°
2026-04-21 21:49 -34.90292 -56.13715 2081 ft 140 kts 49°
2026-04-21 21:49 -34.89720 -56.12768 1896 ft 137 kts 49°
2026-04-21 21:49 -34.89157 -56.11839 1708 ft 136 kts 47°
2026-04-21 21:50 -34.88592 -56.10911 1504 ft 137 kts 49°
2026-04-21 21:50 -34.88034 -56.09992 1341 ft 137 kts 50°
2026-04-21 21:50 -34.87464 -56.09055 1135 ft 137 kts 50°
2026-04-21 21:50 -34.86890 -56.08115 965 ft 139 kts 50°
2026-04-21 21:51 -34.86318 -56.07177 800 ft 137 kts 51°
2026-04-21 21:51 -34.85756 -56.06262 611 ft 135 kts 52°
2026-04-21 21:51 -34.85199 -56.05348 418 ft 134 kts 53°
2026-04-21 21:51 -34.84650 -56.04438 264 ft 133 kts 54°
2026-04-21 21:52 -34.84108 -56.03538 100 ft 131 kts 54°
2026-04-21 21:52 -34.83647 -56.02768 84 ft 78 kts 53°
2026-04-21 21:52 -34.83433 -56.02416 85 ft 43 kts 53°
2026-04-21 21:52 -34.83266 -56.02141 82 ft 37 kts 53°
2026-04-21 21:53 -34.83219 -56.01970 87 ft 19 kts 130°
2026-04-21 21:53 -34.83323 -56.01873 82 ft 18 kts 142°
2026-04-21 21:53 -34.83420 -56.01788 87 ft 17 kts 145°
2026-04-21 21:53 -34.83513 -56.01797 86 ft 14 kts 232°
2026-04-21 21:54 -34.83568 -56.01886 83 ft 12 kts 233°
2026-04-21 21:54 -34.83612 -56.01923 82 ft 6 kts 159°
2026-04-21 21:54 -34.83641 -56.01897 84 ft 4 kts 143°
2026-04-21 21:54 -34.83658 -56.01881 82 ft 2 kts 143°
2026-04-21 21:55 -34.83667 -56.01873 84 ft 1 kts 143°
2026-04-21 21:55 -34.83669 -56.01871 84 ft 0 kts 143°